Regional Weather Roundup
Issued by NWS

Home | Current Version | Previous Version | Graphics & Text | Print | Product List | Glossary On
Versions: 1 2 3 4 5 6 7 8 9 10 11 12 13 14 15 16 17 18 19 20 21 22 23 24 25 26 27 28 29 30 31 32 33 34 35 36 37 38 39 40 41 42 43 44 45 46 47 48 49 50
000
ASUS45 KBOU 281207
RWRCO

WEATHER ROUNDUP FOR COLORADO
NATIONAL WEATHER SERVICE DENVER/BOULDER CO
500 AM MST SUN DEC 28 2014

NOTE: "FAIR" INDICATES FEW OR NO CLOUDS BELOW 12000 FEET WITH NO
SIGNIFICANT WEATHER AND/OR OBSTRUCTIONS TO VISIBILITY.

COZ001>005-013-030-031-281300-
...NORTHWEST COLORADO...

CITY           SKY/WX    TMP DP  RH WIND       PRES   REMARKS
CRAIG          CLOUDY    13   5  70 E5        30.08F WCI   5
HAYDEN         MOCLDY     9   1  72 SE9       30.06F WCI  -5
MEEKER         CLOUDY    17   8  67 NE5       30.07F WCI  10
MOUNT WERNER   NOT AVBL
STEAMBOAT SPGS CLOUDY     3  -1  84 CALM      30.06F
WALDEN         CLOUDY    12   3  67 S16G26    29.95R WCI  -4
$$

COZ006>008-011-281300-
...WEST CENTRAL VALLEYS...

CITY           SKY/WX    TMP DP  RH WIND       PRES   REMARKS
GRAND JUNCTION CLOUDY    17  11  77 E5        30.19F WCI  10
MONTROSE       CLOUDY    15   8  73 SE7       30.20F WCI   5
EAGLE          CLOUDY     7   3  85 CALM      30.14F
RIFLE          CLOUDY    14   6  70 CALM      30.19F
DELTA          MOCLDY    18   9  66 NE5       30.21F WCI  11
NUCLA          MOCLDY    14   7  73 S3        30.22F
$$

COZ017>023-064>068-281300-
...SOUTHWEST COLORADO...

CITY           SKY/WX    TMP DP  RH WIND       PRES   REMARKS
DURANGO        PTCLDY    -1  -4  87 CALM      30.17F
CORTEZ         CLOUDY     7   3  84 NE3       30.20F
PAGOSA SPRINGS PTCLDY   N/A N/A N/A CALM      30.13S
TELLURIDE      CLOUDY    13  -3  48 SE6       30.08F WCI   4
WOLF CREEK PAS PTCLDY     3  -8  60 MISG      29.97F
$$

COZ009-010-012-014-032>034-037-058>063-281300-
...CENTRAL COLORADO...

CITY           SKY/WX    TMP DP  RH WIND       PRES   REMARKS
ASPEN          CLOUDY     5   0  79 S5        30.06S WCI  -4
BUENA VISTA    PTCLDY    -1  -9  71 CALM      29.97F
COPPER MTN     CLOUDY     9  -6  52 SW5       29.89F WCI   0
BERTHOUD PASS  NOT AVBL
COTTONWOOD PAS PTCLDY    23  -8  25 W21G37    29.90F WCI   8
GUNNISON       PTCLDY   -17 -24  70 CALM      30.19F
KREMMLING      CLOUDY     1  -4  78 CALM      30.07F
LEADVILLE      CLOUDY    13  -9  37 VRB5      29.92F WCI   5
MONARCH PASS   PTCLDY     0 -13  55 W37G44    29.99F WCI -28
SALIDA         PTCLDY    11  -2  56 N6        30.05S WCI   2
SUNLIGHT       LGT SNOW N/A N/A N/A CALM      29.95F
WILKERSON PASS MOCLDY    10  -6  48 W17G29    29.85F WCI  -7
$$

COZ069>075-281300-
...SAN LUIS VALLEY/SANGRE DE CRISTO MOUNTAINS...

CITY           SKY/WX    TMP DP  RH WIND       PRES   REMARKS
ALAMOSA        MOCLDY    -9 -13  83 SE5       30.11F WCI -20
LA VETA PASS   NOT AVBL
SAGUACHE       PTCLDY    -4  -9  77 NW17      30.09F WCI -26
$$

COZ035-036-038>040-281300-
...NORTHERN COLORADO FRONT RANGE...

CITY           SKY/WX    TMP DP  RH WIND       PRES   REMARKS
DENVER INTL AP MOCLDY    11   4  73 VRB3      29.91S
DMNS CITY PARK   N/A     11   6  81 S3        29.91F
AURORA         MOCLDY    13   2  60 CALM      29.90F
FRONT RANGE AP MOCLDY    23   7  50 S15G22    29.90F WCI  10
ERIE MUNI ARPT   N/A    N/A N/A N/A MISG      29.93F
BOULDER MUN AP PTCLDY    12  10  92 CALM      29.91F
CENTENNIAL     PTCLDY    15   2  56 CALM      29.89S
BROOMFIELD     PTCLDY    18  10  73 N7        29.89F WCI   8
FORT COLLINS   MOCLDY     9   5  85 N5        29.95S WCI   0
LONGMONT       MOCLDY     8   4  84 S3        29.95F
$$

COZ041-046-047-076>085-087-088-281300-
...PIKES PEAK/PALMER DIVIDE AND SOUTHERN FOOTHILLS...

CITY           SKY/WX    TMP DP  RH WIND       PRES   REMARKS
COLO. SPRINGS  CLOUDY    15   7  70 CALM      29.92F
A. F. ACADEMY  MOCLDY    10   1  66 N7        29.90F WCI   0
ELLICOTT       NOT AVBL
FALCON         CLOUDY    17   4  56 CALM      29.90F
FORT CARSON    CLOUDY    14   7  73 NW1       29.92F
LIMON          PTCLDY     1  -4  79 CALM      29.95F
MONUMENT HILL  MOCLDY    18   1  49 S12       29.86F WCI   5
TRINIDAD       PTCLDY     9   0  67 W13       29.95F WCI  -7
$$

COZ042>045-048>051-090-091-281300-
...NORTHEAST COLORADO...

CITY           SKY/WX    TMP DP  RH WIND       PRES   REMARKS
GREELEY ARPT   CLOUDY     1  -6  71 CALM      29.95S
AKRON          PTCLDY    10   5  80 SW5       29.94F WCI   2
BURLINGTON     PTCLDY     7   3  84 SW8       29.99F WCI  -6
WRAY           PTCLDY     4   0  83 W8        30.02F WCI  -9
STERLING       PTCLDY    -4  -8  84 SW5       30.00S WCI -15
HOLYOKE        PTCLDY     5   0  78 W10       30.00F WCI -10
FORT MORGAN    PTCLDY    -2  -6  83 W10       29.97F WCI -19
$$

COZ086-089-092>099-281300-
...SOUTHEAST COLORADO...

CITY           SKY/WX    TMP DP  RH WIND       PRES   REMARKS
PUEBLO         CLOUDY    11   7  84 CALM      29.98F
LA JUNTA       PTCLDY     8   4  83 W3        30.01F
LAMAR          PTCLDY     6   4  91 W5        30.02F WCI  -3
SPRINGFIELD      N/A     14   8  77 W10       29.99F WCI   1
$$


USA.gov is the U.S. government's official web portal to all federal, state and local government web resources and services.